TimeCST,TemperatureF,Dew PointF,Humidity,Sea Level PressureIn,VisibilityMPH,Wind Direction,Wind SpeedMPH,Gust SpeedMPH,PrecipitationIn,Events,Conditions,WindDirDegrees,DateUTC
12:53 AM,64.9,64.9,100,29.85,10.0,SSE,5.8,-,0.01,,Clear,150,2012-12-07 06:53:00
1:53 AM,66.0,64.9,96,29.83,10.0,SSE,5.8,-,N/A,,Clear,150,2012-12-07 07:53:00
2:53 AM,64.0,64.0,100,29.83,6.0,SSE,3.5,-,N/A,,Clear,160,2012-12-07 08:53:00
3:53 AM,64.0,64.0,100,29.82,5.0,SSE,4.6,-,N/A,,Clear,150,2012-12-07 09:53:00
4:04 AM,64.4,64.4,100,29.82,1.8,SE,4.6,-,N/A,,Clear,140,2012-12-07 10:04:00
4:14 AM,64.4,64.4,100,29.82,4.0,SE,5.8,-,N/A,,Clear,140,2012-12-07 10:14:00
4:53 AM,64.0,64.0,100,29.82,9.0,SSE,6.9,-,N/A,,Clear,150,2012-12-07 10:53:00
5:53 AM,66.0,66.0,100,29.82,10.0,SE,5.8,-,N/A,,Clear,140,2012-12-07 11:53:00
6:53 AM,66.0,66.0,100,29.83,10.0,SE,5.8,-,N/A,,Clear,130,2012-12-07 12:53:00
7:46 AM,68.0,66.2,94,29.84,10.0,SE,5.8,-,N/A,,Partly Cloudy,140,2012-12-07 13:46:00
7:53 AM,68.0,68.0,100,29.84,10.0,SSE,5.8,-,N/A,,Clear,150,2012-12-07 13:53:00
8:53 AM,73.9,70.0,87,29.86,10.0,SSE,8.1,-,N/A,,Scattered Clouds,150,2012-12-07 14:53:00
9:53 AM,77.0,69.1,76,29.87,10.0,SSE,16.1,-,N/A,,Scattered Clouds,160,2012-12-07 15:53:00
10:21 AM,80.6,66.2,61,29.87,10.0,SSE,18.4,-,N/A,,Mostly Cloudy,160,2012-12-07 16:21:00
10:33 AM,78.8,66.2,65,29.87,10.0,SSE,12.7,-,N/A,,Mostly Cloudy,160,2012-12-07 16:33:00
10:53 AM,81.0,66.9,62,29.86,10.0,SSE,19.6,25.3,N/A,,Mostly Cloudy,150,2012-12-07 16:53:00
11:53 AM,82.0,66.9,60,29.84,10.0,South,16.1,-,N/A,,Scattered Clouds,180,2012-12-07 17:53:00
12:53 PM,82.0,66.0,58,29.81,10.0,SSE,19.6,25.3,N/A,,Scattered Clouds,160,2012-12-07 18:53:00
1:53 PM,82.0,64.9,56,29.78,10.0,SSE,15.0,-,N/A,,Partly Cloudy,150,2012-12-07 19:53:00
2:53 PM,81.0,66.0,60,29.78,10.0,SSE,18.4,25.3,N/A,,Mostly Cloudy,150,2012-12-07 20:53:00
3:53 PM,79.0,66.9,66,29.77,10.0,SSE,18.4,-,N/A,,Clear,160,2012-12-07 21:53:00
4:53 PM,77.0,66.9,71,29.78,10.0,SSE,15.0,-,N/A,,Partly Cloudy,150,2012-12-07 22:53:00
5:53 PM,75.0,66.9,76,29.79,10.0,SE,10.4,-,N/A,,Clear,140,2012-12-07 23:53:00
6:53 PM,73.0,68.0,84,29.80,10.0,SE,9.2,-,N/A,,Clear,130,2012-12-08 00:53:00
7:53 PM,73.0,69.1,87,29.81,10.0,SE,11.5,-,N/A,,Clear,140,2012-12-08 01:53:00
8:53 PM,73.0,69.1,87,29.83,10.0,SSE,10.4,-,N/A,,Clear,150,2012-12-08 02:53:00
9:53 PM,72.0,68.0,87,29.83,10.0,SSE,8.1,-,N/A,,Clear,150,2012-12-08 03:53:00
10:53 PM,71.1,68.0,90,29.84,10.0,SSE,8.1,-,N/A,,Clear,150,2012-12-08 04:53:00
11:53 PM,71.1,68.0,90,29.82,10.0,SSE,9.2,-,N/A,,Clear,150,2012-12-08 05:53:00